Location: Jetmore
(38.0845°N, 99.8935°W)
Time: 01:53:01
(UTC+00:00)

Nauka - Pass Details

Date: 21 September 2021
Orbit: 418 x 423 km, 51.6° (Epoch: 14 October)

Event Time Altitude Azimuth Distance (km) Brightness Sun altitude
Rises 02:33:03 0° 288° (WNW) 2,360 ? -22.8°
Reaches altitude 10° 02:36:24 10° 324° (NW) 1,499 ? -23.4°
Maximum altitude 02:37:35 11° 344° (NNW) 1,416 ? -23.6°
Drops below altitude 10° 02:38:46 10° 5° (N) 1,502 ? -23.9°
Enters shadow 02:38:49 10° 6° (N) 1,509 ? -23.9°
